This demonstration page uses our WeatherBlox Daily Observations layout. Learn more.

Left ArrowRight Arrow

39.51506, -84.39828

Hourly Observations for October 24, 2015

Temp ( °F °C ) Dew Point ( °F °C ) Humidity (%) Winds ( mph kmh ) Pressure ( in mb ) Visibility ( mi km ) Precip ( " mm )
12:15 am 00:15 Partly Cloudy 69 20.8 56 13.5 63 63 SSE 3 6 30.03 1017 10 16 N/A
12:35 am 00:35 Partly Cloudy 69 20.8 56 13.6 64 64 SSE 6 9 30.06 1018 10 16 N/A
12:55 am 00:55 Mostly Cloudy 69 20.8 57 13.8 64 64 S 3 6 30.06 1018 10 16 N/A
1:15 am 01:15 Cloudy 66 19 55 13 68 68 N N/A 30.06 1018 10 16 N/A
1:35 am 01:35 Cloudy 66 18.8 55 13 69 69 N N/A 30.06 1018 10 16 N/A
1:55 am 01:55 Cloudy 67 19.5 56 13.5 68 68 N N/A 30.06 1018 10 16 N/A
2:15 am 02:15 Mostly Cloudy 67 19.7 56 13.4 67 67 SSE 3 6 30.03 1017 10 16 N/A
2:35 am 02:35 Partly Cloudy 69 20.6 58 14.3 67 67 N N/A 30.03 1017 10 16 N/A
2:55 am 02:55 Mostly Cloudy 66 18.8 56 13.6 72 72 N N/A 30.03 1017 10 16 N/A
3:15 am 03:15 Mostly Cloudy with Light Rain 64 17.6 57 13.8 79 79 W 3 6 30.03 1017 10 16 N/A
3:35 am 03:35 Mostly Cloudy with Drizzle 63 17 56 13.5 80 80 N N/A 30.03 1017 10 16 N/A
3:55 am 03:55 Mostly Cloudy 62 16.6 56 13.5 82 82 N N/A 30.03 1017 10 16 N/A
4:15 am 04:15 Mostly Cloudy 62 16.7 57 13.7 83 83 N N/A 30.03 1017 10 16 N/A
4:35 am 04:35 Cloudy with Light Rain 61 16 57 13.7 86 86 N N/A 30.03 1017 7 11 N/A
4:55 am 04:55 Cloudy with Drizzle 62 16.6 58 14.3 86 86 N N/A 30.00 1016 7 11 N/A
5:15 am 05:15 Cloudy with Light Rain 63 17.3 57 14.1 82 82 N N/A 30.00 1016 10 16 N/A
5:35 am 05:35 Cloudy 63 17.2 57 14 82 82 N N/A 30.00 1016 10 16 N/A
5:55 am 05:55 Cloudy with Rain 62 16.6 57 14 85 85 SSW 5 7 30.03 1017 7 11 N/A
6:15 am 06:15 Cloudy with Light Rain 63 17.1 57 14 82 82 SSW 6 9 30.03 1017 10 16 N/A
6:35 am 06:35 Cloudy 64 17.6 57 13.8 79 79 SSW 10 17 30.03 1017 10 16 N/A
6:55 am 06:55 Cloudy 63 17.3 56 13.5 79 79 SSW 8 13 30.03 1017 10 16 N/A
7:15 am 07:15 Cloudy 63 17.1 56 13.4 79 79 S 10 17 30.03 1017 10 16 N/A
7:35 am 07:35 Cloudy 63 17.1 56 13.5 80 80 SSW 10 17 30.03 1017 10 16 N/A
7:55 am 07:55 Cloudy with Light Rain 63 17 57 14 83 83 S 8 13 30.03 1017 10 16 N/A
8:15 am 08:15 Cloudy 63 17 57 14.1 83 83 SW 7 11 30.03 1017 10 16 N/A
8:35 am 08:35 Cloudy 64 18 59 15 83 83 SSW 10 17 30.00 1016 10 16 N/A
8:55 am 08:55 Cloudy 64 18 59 15 83 83 S 7 11 30.00 1016 10 16 N/A
9:15 am 09:15 Cloudy 64 18 59 15 83 83 S 10 17 30.00 1016 10 16 N/A
9:35 am 09:35 Cloudy 64 18 59 15 83 83 SSW 10 17 30.03 1017 10 16 N/A
9:55 am 09:55 Cloudy 65 18.2 60 15.3 83 83 S 10 17 30.03 1017 10 16 N/A
10:15 am 10:15 Cloudy with Drizzle 64 18 59 15.2 84 84 SSW 10 17 30.03 1017 10 16 N/A
10:35 am 10:35 Cloudy 66 18.7 61 16.2 85 85 S 7 11 30.00 1016 10 16 N/A
10:55 am 10:55 Partly Cloudy 69 20.8 64 18 84 84 SSW 10 17 30.00 1016 10 16 N/A
11:15 am 11:15 Mostly Cloudy 69 20.8 64 17.7 83 83 SSW 14 22 30.00 1016 10 16 N/A
11:35 am 11:35 Cloudy 69 20.8 64 17.5 82 82 SSW 13 20 30.00 1016 10 16 N/A
11:55 am 11:55 Cloudy 69 20.8 63 17.3 80 80 S 9 15 30.00 1016 10 16 N/A
12:15 pm 12:15 Cloudy 69 20.8 62 16.8 78 78 SSW 12 19 30.00 1016 10 16 N/A
12:35 pm 12:35 Cloudy 69 20.8 61 16.2 75 75 SSW 13 20 29.97 1015 10 16 N/A
12:55 pm 12:55 Cloudy 72 22.3 63 17.1 73 73 SSW 10 17 29.97 1015 10 16 N/A
1:15 pm 13:15 Cloudy 74 23.4 64 17.6 70 70 SW 14 22 29.97 1015 10 16 N/A
1:35 pm 13:35 Cloudy 72 22.1 62 16.6 71 71 SSW 16 26 29.97 1015 10 16 N/A
1:55 pm 13:55 Cloudy 72 22.3 62 16.6 70 70 SSW 14 22 29.97 1015 10 16 N/A
2:15 pm 14:15 Cloudy 72 22.3 62 16.5 70 70 SSW 13 20 29.94 1014 10 16 N/A
2:35 pm 14:35 Cloudy 73 22.7 62 16.7 69 69 S 12 19 29.94 1014 10 16 N/A
2:55 pm 14:55 Cloudy 74 23.6 62 16.9 66 66 SW 16 26 29.94 1014 10 16 N/A
3:15 pm 15:15 Cloudy 74 23.1 62 16.6 67 67 SSW 13 20 29.94 1014 10 16 N/A
3:35 pm 15:35 Cloudy with Light Rain 74 23.6 63 17.3 68 68 SSW 20 31 29.91 1013 10 16 N/A
3:55 pm 15:55 Cloudy 72 22.3 62 16.6 70 70 SSW 17 28 29.91 1013 10 16 N/A
4:15 pm 16:15 Cloudy with Rain 70 20.9 61 16.1 74 74 SSW 16 26 29.91 1013 10 16 N/A
4:35 pm 16:35 Cloudy with Drizzle 69 20.8 63 17.2 80 80 SSW 17 28 29.91 1013 10 16 N/A
4:55 pm 16:55 Cloudy with Drizzle 69 20.8 64 17.7 83 83 SSW 12 19 29.91 1013 10 16 N/A
5:15 pm 17:15 Cloudy with Light Rain 69 20.8 65 18.1 85 85 SSW 12 19 29.91 1013 10 16 N/A
5:35 pm 17:35 Cloudy with Light Rain 69 20.8 65 18.3 86 86 SSW 14 22 29.91 1013 10 16 N/A
5:55 pm 17:55 Cloudy 69 20.8 65 18.3 86 86 SSW 12 19 29.91 1013 10 16 N/A
6:15 pm 18:15 Cloudy with Light Rain 69 20.8 65 18.3 86 86 SSW 14 22 29.91 1013 7 11 N/A
6:35 pm 18:35 Cloudy with Heavy Rain 69 20.8 65 18.4 86 86 SSW 15 24 29.91 1013 7 11 N/A
6:55 pm 18:55 Cloudy with Rain 69 20.8 65 18.5 87 87 SW 14 22 29.91 1013 10 16 N/A
7:15 pm 19:15 Cloudy with Light Rain 69 20.8 66 18.7 88 88 WSW 9 15 29.94 1014 10 16 N/A
7:35 pm 19:35 Cloudy with Light Rain 69 20.8 66 18.7 88 88 SW 12 19 29.94 1014 10 16 N/A
7:55 pm 19:55 Cloudy with Rain 69 20.8 66 18.7 88 88 SW 9 15 29.94 1014 10 16 N/A
8:15 pm 20:15 Mostly Cloudy 69 20.8 66 18.7 88 88 SW 8 13 29.94 1014 10 16 N/A
8:35 pm 20:35 Mostly Cloudy with Drizzle 69 20.8 66 18.7 88 88 SW 8 13 29.97 1015 10 16 N/A
8:55 pm 20:55 Cloudy 69 20.8 66 18.8 88 88 WSW 7 11 29.97 1015 10 16 N/A
9:15 pm 21:15 Cloudy with Drizzle 64 17.6 59 14.8 84 84 NW 13 20 30.00 1016 10 16 N/A
9:35 pm 21:35 Cloudy 62 16.8 56 13.3 80 80 NW 13 20 30.00 1016 10 16 N/A
9:55 pm 21:55 Cloudy 62 16.6 54 12.2 75 75 WNW 10 17 30.00 1016 10 16 N/A
10:15 pm 22:15 Cloudy 61 16.1 54 12.2 78 78 WNW 8 13 30.00 1016 10 16 N/A
10:35 pm 22:35 Cloudy 61 16.3 54 12.1 76 76 WNW 8 13 30.03 1017 10 16 N/A
10:55 pm 22:55 Cloudy 61 16 53 11.4 74 74 WNW 7 11 30.03 1017 10 16 N/A
11:15 pm 23:15 Partly Cloudy 60 15.3 52 11.2 77 77 WNW 6 9 30.06 1018 10 16 N/A
11:35 pm 23:35 Mostly Cloudy 60 15.3 52 11.2 77 77 WNW 6 9 30.09 1019 10 16 N/A
11:55 pm 23:55 Partly Cloudy 60 15.3 52 11.1 76 76 WNW 8 13 30.09 1019 10 16 N/A

Powered by AerisWeather